CST,Max TemperatureF,Mean TemperatureF,Min TemperatureF,Max Dew PointF,MeanDew PointF,Min DewpointF,Max Humidity, Mean Humidity, Min Humidity, Max Sea Level PressureIn, Mean Sea Level PressureIn, Min Sea Level PressureIn, Max VisibilityMiles, Mean VisibilityMiles, Min VisibilityMiles, Max Wind SpeedMPH, Mean Wind SpeedMPH, Max Gust SpeedMPH,PrecipitationIn, CloudCover, Events, WindDirDegrees
2013-12-1,59,48,37,42,37,30,86,73,53,30.18,30.02,29.90,10,7,0,7,3,,0.00,5,Fog,165
2013-12-2,59,48,37,48,40,33,87,81,67,29.89,29.79,29.70,9,3,0,7,1,,0.00,6,Fog-Snow,117
2013-12-3,59,52,44,52,48,40,89,83,72,29.75,29.71,29.67,7,3,0,10,3,,0.00,8,Fog,169
2013-12-4,70,62,54,57,53,45,88,77,61,29.81,29.67,29.62,10,6,2,24,7,28,0.00,6,,186
2013-12-5,55,42,30,44,28,23,82,74,55,30.27,30.13,29.83,10,5,2,18,11,25,1.11,8,Rain-Snow,355
2013-12-6,30,26,21,24,18,11,79,74,63,30.56,30.29,30.18,10,3,0,22,15,26,3.66,8,Rain-Snow,7
2013-12-7,24,18,12,11,7,2,65,60,53,30.70,30.58,30.44,10,10,9,15,12,,2.88,2,Snow,21
2013-12-8,28,24,21,24,20,11,82,77,63,30.38,30.18,30.06,9,4,1,12,7,,0.01,8,Snow,11
2013-12-9,35,32,28,24,21,14,81,66,51,30.32,30.26,30.17,10,9,7,10,4,,0.00,6,Snow,1
2013-12-10,33,26,19,22,18,14,81,69,56,30.42,30.37,30.27,10,9,2,14,7,,0.00,2,Snow,229
2013-12-11,39,28,17,24,14,10,82,70,46,30.66,30.44,30.36,10,4,0,15,2,,0.00,1,Rain,355
2013-12-12,30,22,15,15,11,4,81,62,49,30.66,30.57,30.39,10,10,6,9,3,,0.00,0,,165
2013-12-13,36,27,18,31,22,13,85,75,64,30.36,30.18,29.98,10,7,4,6,1,,0.26,4,Rain,125
2013-12-14,39,36,33,32,30,24,85,80,67,30.17,29.90,29.81,10,6,1,17,4,25,0.55,8,Rain,330
2013-12-15,37,34,30,29,25,22,78,70,65,30.28,30.20,30.13,10,9,7,12,9,,0.00,5,,241
2013-12-16,52,44,35,39,33,28,78,70,59,30.14,30.09,30.05,10,9,7,14,9,,0.00,0,,221
2013-12-17,54,43,30,32,28,24,82,64,33,30.33,30.22,30.12,10,10,10,16,4,,0.00,0,,314
2013-12-18,52,40,27,37,30,21,81,67,48,30.34,30.22,30.06,10,10,10,16,4,,0.00,0,,181
2013-12-19,57,50,44,49,42,36,74,70,65,30.07,29.98,29.87,10,10,10,15,10,,0.00,4,,185
2013-12-20,66,62,57,59,56,50,87,80,72,29.87,29.81,29.75,10,8,1,22,10,29,0.32,8,Rain-Thunderstorm,185
2013-12-21,62,50,39,58,42,33,87,83,79,29.75,29.65,29.49,10,4,0,21,9,33,4.47,8,Fog-Rain-Thunderstorm,11
2013-12-22,45,40,34,41,34,23,89,74,58,30.28,29.93,29.70,10,8,2,15,8,21,0.00,8,,278
2013-12-23,39,34,25,24,19,14,67,59,43,30.57,30.45,30.27,10,10,10,14,10,,0.00,4,,323
2013-12-24,26,22,17,16,11,5,74,61,50,30.68,30.57,30.44,10,10,10,14,8,,0.00,1,,13
2013-12-25,41,31,21,29,23,15,79,69,53,30.43,30.37,30.30,10,10,10,14,5,,0.00,2,,217
2013-12-26,45,35,25,29,26,20,84,71,51,30.47,30.40,30.37,10,9,5,10,3,,0.00,0,,197
2013-12-27,51,38,26,36,28,21,82,73,54,30.47,30.40,30.35,10,9,6,10,2,,0.00,0,,202
2013-12-28,46,36,27,35,29,23,85,76,61,30.34,30.20,29.99,10,8,1,5,1,,0.00,4,,190
2013-12-29,48,38,27,34,27,16,85,67,54,30.26,30.07,29.94,10,10,5,20,8,22,0.00,4,Rain,304
2013-12-30,30,26,21,17,12,7,75,58,43,30.36,30.32,30.27,10,10,10,14,7,,0.00,2,,315
2013-12-31,42,32,21,26,21,15,79,66,49,30.46,30.37,30.29,10,10,10,12,4,,0.00,0,,185